| time (UTC) | temp F | wind direction | speed MPH | gust MPH | rain 1hr in | rain 24hr in | rain mn in | humidity % | barometer mb |
| 20260507171923 | 85 | 198 | 0.0 | 0.0 | 0.00 | 0.00 | 0.00 | 83 | 1007.9 |
| 20260507171423 | 85 | 198 | 0.0 | 0.0 | 0.00 | 0.00 | 0.00 | 83 | 1007.9 |
| 20260507170923 | 85 | 198 | 0.0 | 0.0 | 0.00 | 0.00 | 0.00 | 84 | 1007.9 |
| 20260507165923 | 85 | 198 | 0.0 | 0.0 | 0.00 | 0.00 | 0.00 | 84 | 1007.8 |
| 20260507164423 | 85 | 196 | 0.0 | 0.0 | 0.00 | 0.00 | 0.00 | 84 | 1008.2 |
| 20260507163923 | 85 | 198 | 0.0 | 0.0 | 0.00 | 0.00 | 0.00 | 84 | 1008.3 |
| 20260507163423 | 85 | 198 | 0.0 | 0.0 | 0.00 | 0.00 | 0.00 | 83 | 1008.4 |
| 20260507162423 | 85 | 196 | 0.0 | 0.0 | 0.00 | 0.00 | 0.00 | 83 | 1008.5 |
| 20260507161923 | 85 | 196 | 1.0 | 0.0 | 0.00 | 0.00 | 0.00 | 83 | 1008.5 |
| 20260507161423 | 85 | 196 | 1.0 | 0.0 | 0.00 | 0.00 | 0.00 | 83 | 1008.6 |
| 20260507160423 | 85 | 211 | 0.0 | 0.0 | 0.00 | 0.00 | 0.00 | 82 | 1008.8 |
| 20260507155923 | 85 | 211 | 0.0 | 0.0 | 0.00 | 0.00 | 0.00 | 82 | 1008.8 |
| 20260507155423 | 85 | 211 | 1.0 | 0.0 | 0.00 | 0.00 | 0.00 | 82 | 1008.8 |
| 20260507154424 | 85 | 206 | 0.0 | 0.0 | 0.00 | 0.00 | 0.00 | 82 | 1009.0 |
| 20260507153923 | 85 | 206 | 2.0 | 0.0 | 0.00 | 0.00 | 0.00 | 81 | 1009.0 |
| 20260507152923 | 85 | 192 | 1.0 | 0.0 | 0.00 | 0.00 | 0.00 | 81 | 1009.2 |
| 20260507152423 | 86 | 198 | 3.0 | 0.0 | 0.00 | 0.00 | 0.00 | 81 | 1009.2 |
| 20260507151923 | 85 | 198 | 3.0 | 0.0 | 0.00 | 0.00 | 0.00 | 81 | 1009.2 |
| 20260507150923 | 85 | 165 | 5.0 | 0.0 | 0.00 | 0.00 | 0.00 | 81 | 1009.5 |
| 20260507150423 | 85 | 179 | 2.0 | 0.0 | 0.00 | 0.00 | 0.00 | 81 | 1009.5 |
| 20260507145923 | 85 | 179 | 3.0 | 0.0 | 0.00 | 0.00 | 0.00 | 81 | 1009.4 |
| 20260507144923 | 85 | 160 | 4.0 | 0.0 | 0.00 | 0.00 | 0.00 | 82 | 1009.3 |
| 20260507144423 | 85 | 184 | 2.0 | 0.0 | 0.00 | 0.00 | 0.00 | 82 | 1009.2 |
| 20260507143923 | 85 | 184 | 3.0 | 0.0 | 0.00 | 0.00 | 0.00 | 82 | 1009.1 |
| 20260507142923 | 85 | 161 | 6.0 | 0.0 | 0.00 | 0.00 | 0.00 | 83 | 1009.0 |
| 20260507141923 | 85 | 169 | 5.0 | 0.0 | 0.00 | 0.00 | 0.00 | 83 | 1009.0 |
| 20260507140923 | 85 | 155 | 7.0 | 0.0 | 0.00 | 0.00 | 0.00 | 84 | 1009.0 |
| 20260507135923 | 85 | 180 | 7.0 | 0.0 | 0.00 | 0.00 | 0.00 | 84 | 1008.8 |
| 20260507134923 | 85 | 186 | 8.0 | 0.0 | 0.00 | 0.00 | 0.00 | 85 | 1008.5 |
| 20260507133923 | 85 | 161 | 6.0 | 0.0 | 0.00 | 0.00 | 0.00 | 85 | 1008.1 |
| 20260507132923 | 85 | 195 | 10.0 | 0.0 | 0.00 | 0.00 | 0.00 | 84 | 1007.8 |
| 20260507132424 | 85 | 196 | 5.0 | 0.0 | 0.00 | 0.00 | 0.00 | 84 | 1007.6 |
| 20260507131423 | 85 | 180 | 7.0 | 0.0 | 0.00 | 0.00 | 0.00 | 84 | 1007.4 |
| 20260507130423 | 86 | 180 | 6.0 | 0.0 | 0.00 | 0.00 | 0.00 | 84 | 1007.2 |
| 20260507125923 | 86 | 175 | 7.0 | 0.0 | 0.00 | 0.00 | 0.00 | 84 | 1007.1 |
| 20260507125423 | 86 | 188 | 6.0 | 0.0 | 0.00 | 0.00 | 0.00 | 84 | 1006.9 |
| 20260507124923 | 86 | 190 | 6.0 | 0.0 | 0.00 | 0.00 | 0.00 | 84 | 1006.8 |
| 20260507124423 | 86 | 192 | 6.0 | 0.0 | 0.00 | 0.00 | 0.00 | 84 | 1006.8 |
| 20260507123423 | 86 | 184 | 6.0 | 0.0 | 0.00 | 0.00 | 0.00 | 83 | 1006.5 |
| 20260507122423 | 86 | 182 | 7.0 | 0.0 | 0.00 | 0.00 | 0.00 | 84 | 1006.4 |
| 20260507121923 | 86 | 137 | 5.0 | 0.0 | 0.00 | 0.00 | 0.00 | 84 | 1006.2 |
| 20260507121423 | 86 | 136 | 7.0 | 0.0 | 0.00 | 0.00 | 0.00 | 84 | 1006.1 |
| 20260507120423 | 86 | 155 | 5.0 | 0.0 | 0.00 | 0.00 | 0.00 | 84 | 1006.0 |
| 20260507115923 | 86 | 164 | 6.0 | 0.0 | 0.00 | 0.00 | 0.00 | 83 | 1006.0 |
| 20260507114923 | 86 | 172 | 8.0 | 0.0 | 0.00 | 0.00 | 0.00 | 83 | 1005.8 |
| 20260507113923 | 87 | 157 | 7.0 | 0.0 | 0.00 | 0.00 | 0.00 | 83 | 1005.7 |
| 20260507112923 | 87 | 153 | 9.0 | 0.0 | 0.00 | 0.00 | 0.00 | 81 | 1005.7 |
| 20260507111923 | 87 | 155 | 7.0 | 0.0 | 0.00 | 0.00 | 0.00 | 81 | 1005.8 |
| 20260507110423 | 88 | 155 | 8.0 | 0.0 | 0.00 | 0.00 | 0.00 | 79 | 1005.6 |
| 20260507105422 | 88 | 140 | 8.0 | 0.0 | 0.00 | 0.00 | 0.00 | 79 | 1005.6 |
| 20260507104922 | 88 | 169 | 8.0 | 0.0 | 0.00 | 0.00 | 0.00 | 79 | 1005.4 |
| 20260507104422 | 89 | 139 | 10.0 | 0.0 | 0.00 | 0.00 | 0.00 | 78 | 1005.3 |
| 20260507103943 | 89 | 125 | 9.0 | 0.0 | 0.00 | 0.00 | 0.00 | 78 | 1005.3 |
| 20260507103423 | 89 | 136 | 9.0 | 0.0 | 0.00 | 0.00 | 0.00 | 78 | 1005.2 |
| 20260507102423 | 89 | 136 | 10.0 | 0.0 | 0.00 | 0.00 | 0.00 | 77 | 1005.0 |
| 20260507101423 | 90 | 148 | 8.0 | 0.0 | 0.00 | 0.00 | 0.00 | 75 | 1005.2 |